Flag for Switzerland Weather past 2 weeks in Zürich, Zurich, Switzerland

Now
43 °F

Quite cool.


Feels Like: 41 °F
Forecast: 38 / 69 °F
Wind: 3 mph from North

Location: Zurich Town / Ville.

Current Time: May 27, 2015 at 6:45:34 AM

Latest Report: May 27, 2015 at 4:00 AM


Visibility: N/A

Pressure: 30.26 "Hg

Humidity: 94%

Dew point: 42 °F

Location of ZürichLocation

Historic Weather in Zürich — Graph

°F

Zürich temperature yesterday

Maximum temperature yesterday: 52 °F (at 9:00 AM)
Minimum temperature yesterday: 48 °F (at 10:00 PM)
Average temperature yesterday: 51 °F

Past Weeks' High & Low Weather Summary

 TemperatureHumidityPressure
High81 °F (May 12, 3:00 PM)97% (May 15, 5:00 PM)30.34 "Hg (May 15, 5:00 PM)
Low41 °F (May 21, 1:00 AM)29% (May 12, 3:00 PM)29.71 "Hg (May 18, 7:00 PM)
Average55 °F75%30.06 "Hg
* Reported May 12 4:00 AM — May 27 4:00 AM, Zürich, Weather by CustomWeather, © 2015

Note: Actual official high and low records may vary slightly from our data, if they occured in-between our weather recording intervals... More about our weather records

Advertising

Zürich weather history for previous 24 hours

 ConditionsComfort  
Time TempWeatherWind HumidityBarometerVisibility
4:00 AM
Wed, May 27
43 °FQuite cool.3 mph94%30.26 "HgN/A
3:00 AM44 °FQuite cool.2 mph94%30.24 "HgN/A
2:00 AM46 °FCool.3 mph87%30.23 "HgN/A
1:00 AM47 °FCool.3 mph88%30.22 "HgN/A
12:00 AM47 °FCool.1 mph95%30.22 "HgN/A
10:00 PM
Tue, May 26
48 °FCool.5 mph89%30.19 "HgN/A
9:00 PM50 °FCool.3 mph94%30.16 "HgN/A
8:00 PM51 °FCool.2 mph91%30.14 "HgN/A
7:00 PM51 °FCool.2 mph93%30.12 "HgN/A
6:00 PM51 °FCool.1 mph93%30.10 "HgN/A
5:00 PM51 °FCool.1 mph88%30.09 "HgN/A
4:00 PM50 °FCool.1 mph86%30.09 "HgN/A
3:00 PM50 °FCool.2 mph93%30.09 "HgN/A
2:00 PM51 °FOvercast.3 mph96%30.08 "HgN/A
1:00 PM49 °FCool.3 mph96%30.09 "HgN/A
12:00 PM51 °FCool.5 mph97%30.06 "HgN/A
11:00 AM50 °FCool.6 mph97%30.06 "HgN/A
10:00 AM51 °FCool.5 mph94%30.04 "HgN/A
9:00 AM52 °FCool.2 mph92%30.02 "HgN/A
8:00 AM51 °FCool.1 mph95%30.01 "HgN/A
7:00 AM51 °FCool.3 mph95%29.99 "HgN/A
6:00 AM51 °FCool.5 mph95%29.98 "HgN/A
Weather by CustomWeather, © 2015

See weather overviewHow to use our weather pages